www.pogodaiklimat.ru

Погода и климат >> Архив погоды >> Монголия >> Тэс


ПОГОДА в Тэсе

  • Прогноз погоды в Тэсе
  • Монитор погоды в Тэсе

АРХИВ ПОГОДЫ в Тэсе

Время (UTC), дата Ветер
(напр.,м/с)
 
Видим.   Явления Облачность Т
(С)
Тd
(С)
f
(%)
Тe
(С)
Тes
(С)
Комфортность P
(гПа)
Po
(гПа)
Тmin
(С)
Tmax
(С)
R
(мм)
R24
(мм)
S
(см)
00 16.09 штиль 0 50 км 8/0
[Ac trans Cs]
-1.8 -3.1 91 -3 -3 1030.2 861.6 -2.8
03 16.09 Ю 1 50 км 1/1 1000 м
[Cu med, cong]
+8.1 +0.1 57 +8 +14 1024.4 862.2
06 16.09 З 4 50 км 6/6 1000 м
[Cb calv]
+13.9 -1.3 35 +13 +15 1019.6 861.1
09 16.09 З 4 50 км 4/4 1000 м
[Cu med, cong]
+15.3 -1.3 32 +15 +16 1018.0 860.5
12 16.09 З 2 50 км 3/0
[Ac lent]
+12.7 -1.2 38 +12 +12 1020.6 861.4 +15.4
15 16.09 С 2 50 км ясно +6.9 -0.1 61 +5 +5 1026.7 863.5
18 16.09 Ю 1 50 км ясно +1.7 -0.9 83 0 0 1031.1 864.3
21 16.09 Ю 3 50 км ясно +0.3 -1.9 85 -4 -4 1032.4 864.7
00 17.09 Ю 1 50 км ясно +1.4 -2.0 78 -0 -0 1032.7 865.5 -1.7
03 17.09 СЗ 2 50 км ясно +9.1 -0.5 51 +8 +14 1027.3 865.2
06 17.09 СВ 2 50 км 9/0
[Ac trans Cs]
+15.4 -0.8 33 +16 +22 1021.7 863.7
09 17.09 С 2 50 км 9/3 1000 м
[Cu med, cong Ac As]
+17.3 -1.4 28 +18 +19 1019.1 862.4
12 17.09 штиль 0 50 км 10/8 1000 м
[Sc Ac As]
+14.0 -1.2 35 +14 +14 1020.3 861.8 +17.4
15 17.09 З 1 н/о 6/0
[Ac lent]
+11.1 -1.0 43 +11 +11 1022.4 862.1
18 17.09 СЗ 2 н/о 9/0
[Ac cast Cs]
+6.3 -0.7 61 +4 +4 1026.5 863.0
21 17.09 Ю 1 н/о 9/0
[Ac As Cs]
+2.9 -0.9 76 +2 +2 1029.2 863.4
00 18.09 В 1 50 км 10/0
[Ac As Cc]
+2.2 -0.9 80 +1 +1 1031.4 864.9 +1.6
03 18.09 С 1 50 км 9/3 1000 м
[Cu hum Ac lent Cs]
+9.5 -0.7 49 +9 +12 1027.1 865.2
06 18.09 З 4 50 км 6/5 1000 м
[Cu med, cong Ci fib]
+15.6 +0.8 37 +15 +18 1021.9 864.0
09 18.09 З 4 50 км 6/4 1000 м
[Cu med, cong Ci fib]
+17.3 -0.9 29 +17 +18 1019.8 863.0
12 18.09 З 5 50 км 1/0
[Ac lent]
+14.6 +0.4 38 +13 +13 1022.4 863.9 +17.6
15 18.09 штиль 0 50 км ясно +7.4 +0.8 63 +7 +7 1028.1 864.9
18 18.09 З 2 50 км ясно +5.7 -0.8 63 +4 +4 1029.7 865.3
21 18.09 ЮВ 2 50 км ясно +0.5 -1.9 84 -3 -3 1033.5 865.7
00 19.09 штиль 0 50 км ясно -0.3 -2.3 86 -1 -1 1035.2 866.6 -1.8
03 19.09 СВ 1 50 км 3/1 1000 м
[Cu hum Ci fib]
+9.5 +0.4 53 +9 +15 1028.9 866.7
06 19.09 З 3 50 км 4/3 1000 м
[Cu med, cong Ci]
+16.2 +0.3 34 +16 +21 1022.9 865.1
09 19.09 З 3 50 км 5/3 1000 м
[Cu med, cong Ci]
+17.9 +0.1 30 +18 +20 1020.5 863.9
12 19.09 З 1 50 км 3/0
[Ac lent Ci fib]
+13.7 +1.0 42 +14 +14 1023.0 863.9 +18.0
15 19.09 Ю 2 50 км ясно +8.7 +0.4 56 +7 +7 1027.3 865.0
18 19.09 штиль 0 50 км ясно +3.2 -0.6 76 +2 +2 1030.7 864.9
21 19.09 штиль 0 н/о 6/0
[Cs]
+1.3 -0.6 87 0 0 1031.7 864.6
00 20.09 Ю 2 50 км 9/0
[Ac lent Cs]
+3.5 -0.5 75 +1 +1 1030.4 864.8 +1.0
03 20.09 СЗ 1 50 км 8/0
[Cc]
+11.3 +0.7 48 +12 +17 1025.1 864.5
06 20.09 С 2 50 км 3/0
[Cs]
+18.7 +0.8 30 +19 +28 1018.3 862.5
09 20.09 С 1 50 км 8/0
[Cs]
+20.8 +0.1 25 +22 +25 комфорт 1015.6 861.1
12 20.09 штиль 0 50 км 8/3 600 м
[Cb calv Ac cuf Ci]
+14.3 +1.2 41 +14 +14 1019.2 861.0 +21.0
15 20.09 ЮВ 1 50 км ясно +5.8 -0.0 66 +5 +5 1025.8 862.2
18 20.09 штиль 0 50 км 3/0
[Ac lent]
+3.1 -0.9 75 +2 +2 1027.9 862.4
21 20.09 Ю 1 50 км 5/0
[Ac trans]
+1.7 -1.5 79 0 0 1029.2 862.7
00 21.09 Ю 2 50 км ясно +0.4 -2.6 80 -3 -3 1031.4 863.9 -0.7
03 21.09 штиль 0 50 км ясно +12.8 +0.2 42 +13 +20 1023.6 864.0
06 21.09 С 1 50 км 4/3 1000 м
[Cu med, cong Ci fib]
+19.5 -1.6 24 +21 +28 комфорт 1017.6 862.3
09 21.09 СЗ 3 50 км 3/3 1000 м
[Cu med, cong]
+22.3 -2.4 19 +21 +23 комфорт 1015.0 861.4
12 21.09 ЮЗ 1 50 км 3/0
[Ac lent]
+16.2 -0.5 32 +17 +17 1019.1 861.8 +22.6
15 21.09 ЮВ 1 50 км ясно +6.7 -1.2 57 +6 +6 1026.9 863.6
18 21.09 Ю 1 50 км ясно +3.1 -1.8 70 +2 +2 1029.6 863.9
21 21.09 ЮВ 1 50 км ясно +1.4 -3.1 72 -0 -0 1031.4 864.4
00 22.09 Ю 2 50 км 8/0
[Cs]
+3.6 -2.6 64 +1 +1 1031.2 865.5 -0.4
03 22.09 СЗ 2 50 км 6/0
[Cs]
+12.9 -0.7 39 +13 +17 1025.5 865.7
06 22.09 С 1 50 км 8/1 1000 м
[Cu hum Cs]
+20.9 -0.4 24 +22 +30 комфорт 1019.1 864.2
09 22.09 В 2 50 км 6/1 1000 м
[Cu hum Cs]
+23.2 -5.8 14 +21 +24 комфорт 1016.0 862.6
12 22.09 штиль 0 50 км ясно +17.5 -3.8 23 +18 +18 1019.7 863.0 +24.1
15 22.09 Ю 2 50 км ясно +10.1 -4.3 36 +9 +9 1025.3 864.0
18 22.09 Ю 1 50 км ясно +4.6 -3.9 54 +4 +4 1028.6 863.9
21 22.09 штиль 0 50 км ясно +3.7 -4.0 57 +3 +3 1029.2 863.8

 

Местоположение метеостанции Тэс (Монголия): широта 49.65 долгота 95.78 высота над уровнем моря 1421 м.

В архиве по умолчанию представлена погода в Тэсе за последнюю неделю. Архивные данные за месяц целиком и за предыдущие месяцы, начиная с января 2011 года, Вы можете получить, выбрав интересующий диапазон дат из раскрывающегося списка и нажав кнопку "Ввод!".


*Определитесь, кто Вы:
робот инопланетянин человек

Внимание! Время в таблицах - всемирное. Для получения местного времени необходимо прибавить поправку, которая равна 8 ч.

Смотрите также архив погоды в соседних городах и на ближайших метеорологических станциях:

Погода в Эрзине (Тува, Россия) (84 км)
Погода в Цэцэн-Ууле (Монголия) (99 км)
Погода в Баруунтурууне (Монголия) (99 км)
Погода в Кунгур-Туке (Алтай, Россия) (163 км)
Погода в Ургамале (Монголия) (166 км)
Погода в Сосновке (Тува, Россия) (189 км)
Погода в Тосонцэнгэле (Монголия) (203 км)
Погода в Сарыг-Сепе (Тува, Россия) (206 км)
Погода в Хову-Аксы (Тува, Россия) (214 км)
Погода в Завхане (Монголия) (215 км)

Пояснения к столбцам:

Ветер - указаны скорость ветра в м/с - средняя за 10 мин, порывы в срок и между сроками (в фигурных скобках) и направление, откуда дует ветер: С - северный, СВ - северо-восточный, В - восточный, ЮВ - юго-восточный, Ю - южный, ЮЗ - юго-западный, З - западный, СЗ - северо-западный.
Видимость - горизонтальная дальность видимости в метрах или километрах. При видимости от 1 до 10 км при отсутствии осадков обычно наблюдается дымка, при ухудшении видимости до 1 км и менее - туман. В сухую погоду видимость может ухудшаться дымом, пылью или мглою.
Явления - указаны атмосферные явления, наблюдавшиеся в срок или в последний час перед сроком; фигурными скобками обозначены явления, наблюдавшиеся между сроками (за 1-3 часа до срока); квадратными скобками обозначены град или гололедные отложения с указанием их диаметра в мм.
Облачность - указаны через наклонную черту общая и нижняя облачность в баллах и высота нижней границы облаков в метрах; квадратными скобками обозначены формы облаков: Ci - перистые, Cs - перисто-слоистые, Cc - перисто-кучевые, Ac - высококучевые, As - высокослоистые, Sc - слоисто-кучевые, Ns - слоисто-дождевые, Cu - кучевые, Cb - кучево-дождевые. Подробнее классификацию облаков см. в Атласе облаков (PDF).
T - Температура воздуха - температура, измеренная на высоте 2 м над землей.
Td - Температура точки росы - температура, при понижении до которой содержащийся в воздухе водяной пар достигнет насыщения.
f - Относительная влажность воздуха - влажноcть воздуха, измеренная на высоте 2 м над землей.
Te - Эффективная температура - температура, которую ощущает одетый по сезону человек в тени. Характеристика душности погоды. При расчете учитывается влияние влажности воздуха и скорости ветра на теплоощущения человека.
Tes - Эффективная температура на солнце - температура, которую ощущает человек, с поправкой на солнечный нагрев. Характеристика знойности погоды. Зависит от высоты солнца над горизонтом, облачности и скорости ветра. Ночью, в пасмурную погоду, а также при ветре 12 м/с и более поправка равна нулю.
P - Атмосферное давление - приведенное к уровню моря атмосферное давление.
Po - Атмосферное давление - измеренное на уровне метеостанции атмосферное давление.
Tmin - Минимальная температура - минимум температуры воздуха на высоте 2 м над землей.
Tmax - Максимальная температура - максимум температуры воздуха на высоте 2 м над землей.
R - Количество осадков - Количество выпавших осадков за период времени, мм. При наведении курсора мыши на число - период времени, за который выпало указанное количество осадков.
R24 - Количество осадков - Количество выпавших осадков за 24 часа, мм.
S - Снежный покров - Высота снежного покрова, см. При наведении курсора мыши на число - состояние снежного покрова и степень покрытия местности в баллах.